Zurück zum Katalog

CZ-6A DEB

AktivPO
NORAD 61410·DEBRIS·🇨🇳 China

Gestartet Aug 6, 2024 von Taiyuan Satellite Launch Center

Loading…

Nächste Überflüge (nächste 24 Stunden)

TLE

AktuellSource: Space-Track

Epoche: Sep 14, 2026, 18:19 UTC

1 61410U 24140YB  26257.76338278  .00000175  00000-0  76329-4 0  9993
2 61410  88.9922 264.4262 0044553 247.3557 112.2918 14.19068271104178

Verfolge CZ-6A DEB in Echtzeit mit AllMySat

Download on the App Store